GFSGBSN_prec_cthk_000.txt.gz
RH
31 31 32 38 36 29 28 26 26 24 21 18 15 14 13 11 11 12 14 14 13 11 13 14 15 14 14 12 11 13 14 14 14 12 12 12 14 13 14 14 13 12 14 16 16 17 13
33 34 37 36 32 30 27 26 24 21 18 17 15 14 13 14 14 14 14 14 13 12 12 14 15 14 13 12 13 13 13 13 14 14 14 15 17 17 18 19 20 19 17 18 18 18 18
36 33 35 32 29 28 26 24 21 19 18 17 16 15 14 14 14 13 13 13 13 14 15 16 16 15 14 13 14 14 13 13 12 12 15 17 20 22 22 23 23 21 21 19 21 20 19
34 35 35 32 29 26 24 21 20 19 18 17 16 15 15 14 13 13 12 12 14 16 16 17 16 14 13 13 13 14 14 11 11 13 15 17 19 20 22 22 23 22 20 22 21 21 20
37 34 33 30 27 25 22 20 19 19 18 18 16 15 15 14 13 13 13 12 12 14 17 17 18 18 13 12 11 12 11 9 12 15 17 18 20 18 18 17 21 19 20 21 21 21 22
40 37 33 29 26 24 21 19 19 18 18 17 16 15 14 13 13 13 13 13 13 15 17 16 16 16 14 13 11 9 9 9 12 15 17 16 19 20 20 18 22 20 19 20 24 24 24
41 38 32 30 27 22 20 18 18 17 17 16 15 14 14 14 14 14 16 17 16 16 16 16 15 16 13 11 11 10 8 11 13 14 15 15 21 23 20 20 20 20 19 23 24 24 23
43 41 35 32 27 24 20 18 16 16 16 15 15 14 14 14 15 19 21 22 23 17 17 14 12 13 9 11 12 11 8 11 13 14 13 18 21 22 20 21 21 21 21 24 22 23 25
42 41 37 34 29 25 22 19 17 15 15 14 14 14 14 14 16 18 18 19 18 17 18 12 11 11 11 11 12 11 10 13 14 15 15 18 18 19 19 20 22 22 22 23 27 27 28
40 40 39 36 31 27 25 22 19 16 14 14 14 14 14 14 13 15 18 16 17 20 25 18 15 14 12 14 15 15 16 18 18 16 14 17 21 20 19 24 23 24 23 26 29 31 36
38 36 36 36 33 29 26 23 21 19 16 14 13 13 12 12 16 14 14 12 14 19 40 21 16 16 17 16 16 20 22 22 21 19 19 22 21 25 27 27 27 26 26 28 30 36 37
35 33 34 33 32 30 27 25 23 22 20 16 14 15 14 14 17 14 14 13 17 42 41 23 21 21 22 22 22 25 27 26 26 29 28 26 25 27 30 32 30 29 29 31 38 40 48
33 31 31 31 31 29 27 26 25 25 24 22 19 17 19 19 18 17 16 23 43 42 28 29 27 23 26 27 26 27 29 30 33 31 36 34 31 31 32 32 30 34 37 49 49 56 56
35 32 31 31 31 30 27 26 26 26 26 26 27 26 23 24 24 22 24 38 41 37 33 31 29 27 31 29 28 31 32 37 37 36 41 46 46 37 35 34 38 41 42 55 59 64 57
38 34 31 31 31 32 29 28 27 28 27 29 29 28 28 26 26 25 33 45 41 37 33 32 31 32 33 32 32 37 42 44 44 41 44 52 47 40 38 38 42 44 49 47 55 68 69
35 35 32 31 32 33 32 32 31 31 30 33 33 31 31 28 29 37 42 38 37 35 34 33 36 37 42 45 44 43 44 48 48 44 44 49 53 45 43 43 47 47 47 60 69 77 84
32 33 31 32 32 32 35 34 34 35 38 40 43 37 34 37 38 40 46 42 38 36 37 42 44 48 48 48 48 47 52 49 47 45 47 50 53 50 47 52 54 51 60 64 67 76 86
33 28 32 30 32 32 33 35 36 39 45 48 49 42 38 43 45 47 43 41 40 41 40 42 45 48 50 48 50 51 52 52 51 52 53 52 55 62 55 56 55 55 59 65 80 77 79
33 27 28 31 31 33 32 34 36 37 43 42 42 42 43 46 46 49 44 44 44 46 48 49 47 46 47 50 53 54 54 55 54 52 51 51 54 59 50 55 53 53 49 58 66 73 77
33 30 28 30 32 33 32 32 32 35 37 39 41 43 42 44 44 41 41 44 44 44 46 47 49 51 53 57 56 55 56 54 52 47 45 45 48 51 59 55 62 57 47 53 63 75 73
33 31 31 32 32 33 32 32 31 30 31 35 38 38 43 49 45 44 45 45 44 45 42 42 46 46 46 49 48 49 49 50 44 43 46 49 55 55 55 57 62 56 57 60 65 59 73
37 34 33 33 33 34 33 33 32 30 29 31 32 34 37 40 41 42 44 42 41 42 43 43 45 45 44 45 44 46 46 47 47 44 46 50 58 63 56 59 67 62 60 60 60 60 61
44 38 36 36 35 35 35 34 34 32 32 32 33 32 30 36 37 38 40 37 39 40 42 44 45 44 45 42 46 48 44 41 39 41 46 55 61 70 64 71 76 66 57 54 55 52 57
52 45 40 39 37 36 36 36 36 35 36 34 33 32 29 36 35 36 38 38 39 40 43 44 44 47 46 45 48 49 47 43 41 41 47 54 66 76 83 83 88 54 52 53 56 58 57
55 51 46 43 41 39 38 38 39 39 39 38 34 34 33 38 38 36 37 39 41 41 44 49 46 48 52 56 60 55 52 47 47 50 56 64 77 83 84 88 73 60 56 58 64 65 65
55 53 50 47 46 44 42 41 41 42 41 40 38 37 36 35 37 35 36 37 42 43 44 48 49 51 57 65 68 71 66 63 59 55 63 72 77 81 85 90 84 61 59 62 70 72 70
54 53 51 50 49 48 45 44 43 44 43 42 42 40 39 37 36 36 36 40 43 45 48 51 55 58 63 71 78 77 73 68 74 72 72 81 85 84 87 87 77 60 63 73 81 70 75
47 50 51 49 48 48 47 46 46 46 46 44 41 41 38 39 40 39 41 44 50 54 58 59 65 67 76 79 82 79 79 79 80 75 76 77 86 89 87 91 87 72 80 89 85 81 81
44 44 44 44 44 45 46 46 46 46 48 47 44 44 45 44 42 41 42 47 55 56 59 68 75 75 80 83 86 88 91 90 88 86 77 85 83 82 79 78 72 78 81 79 84 82 75

GFSGBSN_prec_cthk_006.txt.gz
RH
28 30 32 32 33 34 35 31 29 29 30 31 30 25 21 14 14 13 15 17 16 17 18 17 17 15 14 15 16 15 13 12 12 12 12 10 9 10 12 10 10 13 16 18 18 17 16
32 34 33 34 34 34 34 30 29 28 29 24 23 16 14 14 13 14 17 16 17 17 18 19 17 15 14 14 16 15 14 13 14 15 14 11 12 11 11 11 12 15 16 18 20 20 18
35 37 34 35 36 35 33 29 26 24 21 19 16 15 14 14 14 17 16 16 16 16 18 17 15 14 14 14 14 14 14 14 13 14 15 16 16 16 16 18 18 18 18 18 19 20 19
40 38 37 38 37 34 30 28 26 24 22 19 18 16 15 15 16 17 16 15 15 17 17 16 14 13 13 13 13 12 12 13 12 14 15 16 19 18 18 17 18 19 18 20 21 21 21
42 40 39 38 34 30 29 27 25 23 21 19 17 16 16 16 16 16 15 15 16 17 17 15 13 12 12 12 11 10 9 9 13 14 16 17 17 16 15 17 20 20 19 20 22 23 24
42 40 39 35 32 29 27 25 23 22 21 20 18 18 18 17 17 16 16 16 16 16 15 15 14 13 12 10 10 9 7 10 13 14 15 17 18 17 19 19 19 20 19 20 20 22 24
43 40 37 34 30 27 25 23 22 22 21 19 18 18 18 17 18 17 16 16 16 15 15 15 15 13 10 10 9 7 7 11 12 13 16 17 20 22 21 19 20 20 22 23 20 21 23
45 42 38 33 29 26 23 21 21 21 21 19 18 17 16 17 17 15 14 15 17 16 13 14 12 9 10 10 9 8 7 11 13 14 14 17 19 20 21 20 20 21 23 22 22 23 25
49 44 39 33 29 24 23 19 19 20 19 18 16 15 15 16 15 14 14 15 16 16 13 13 12 12 11 12 12 12 11 14 16 16 17 18 19 19 19 22 24 24 22 24 26 27 28
49 45 41 35 31 26 23 19 17 17 17 17 15 14 14 16 14 15 16 15 15 16 18 15 13 14 13 13 14 16 17 19 21 20 21 22 20 22 24 24 26 27 24 26 28 31 34
48 46 41 37 32 28 24 21 19 17 15 15 14 14 14 15 16 16 17 16 16 22 29 19 18 17 15 13 16 19 21 21 24 24 24 26 26 28 29 29 29 29 28 28 29 33 36
46 44 40 36 33 30 26 23 21 18 15 14 14 13 13 13 13 16 15 14 19 32 31 23 21 21 20 20 22 25 24 25 28 29 30 31 31 32 34 33 32 29 29 30 36 39 45
44 42 40 36 33 31 28 25 23 21 17 15 14 13 13 16 16 14 14 19 30 34 26 24 22 22 22 25 28 29 30 31 33 28 37 35 35 37 37 36 35 35 34 41 45 52 51
42 39 39 36 34 32 28 27 26 24 20 18 17 16 15 15 14 15 20 33 27 28 26 25 25 27 28 29 32 34 35 38 36 37 46 47 42 40 39 37 41 41 42 52 48 61 57
43 39 38 37 34 33 30 28 27 26 25 23 20 18 17 17 16 18 29 38 34 33 30 30 30 32 33 33 33 36 39 43 43 43 45 54 46 44 42 43 43 45 50 49 58 64 63
45 40 37 36 35 33 32 30 29 27 27 26 25 22 20 21 22 29 34 34 30 31 32 32 33 35 37 41 42 44 45 46 44 46 45 48 52 45 45 46 45 46 47 53 59 67 66
47 42 37 35 36 35 35 32 32 29 30 30 29 25 29 29 32 33 36 33 34 36 37 39 41 43 46 47 46 47 47 46 46 47 44 44 47 41 42 47 49 51 55 55 56 65 73
46 43 37 35 36 37 36 36 36 34 33 36 30 30 33 36 35 36 35 34 38 39 39 40 41 42 44 46 48 47 48 48 48 48 47 45 47 48 38 43 48 50 53 55 62 61 72
44 39 39 35 34 37 37 39 41 44 43 41 33 34 35 37 40 43 41 40 39 40 40 41 44 46 47 48 50 51 52 52 50 47 44 39 44 48 37 46 48 52 54 56 62 69 73
45 41 34 36 33 34 36 40 43 47 45 41 37 42 39 39 42 42 40 39 41 41 42 43 45 44 45 46 46 45 45 43 41 40 40 41 47 46 50 41 45 51 52 56 63 75 74
43 41 38 32 34 33 35 35 37 39 42 39 38 44 43 46 45 42 39 38 40 39 39 40 41 40 40 44 43 45 44 44 43 43 44 47 52 50 49 49 49 48 51 58 70 68 77
41 39 39 33 32 34 34 33 33 34 37 37 37 43 42 43 42 40 41 38 40 38 37 37 38 40 39 39 39 40 38 38 39 40 44 48 52 54 55 56 59 58 55 63 66 66 68
40 38 37 33 31 34 34 34 33 33 32 33 35 37 39 45 41 40 39 36 35 35 36 34 35 37 38 38 36 36 35 36 42 45 49 55 61 66 61 61 64 54 51 63 63 61 60
43 39 37 33 31 33 34 35 35 33 32 31 31 32 33 41 39 37 34 33 33 33 33 33 34 35 36 37 36 37 38 40 44 48 52 63 67 73 77 75 84 54 55 62 62 61 58
47 43 39 36 34 34 36 36 37 36 34 33 33 31 29 36 36 32 31 31 31 32 33 33 35 35 37 37 39 39 44 41 47 53 58 63 70 78 82 86 78 61 58 61 64 62 61
54 50 45 41 38 37 38 38 39 39 37 36 33 32 31 30 34 31 33 33 36 36 36 36 36 37 39 43 46 52 56 56 57 56 66 71 76 84 90 95 91 64 67 68 71 74 74
62 59 56 52 46 42 40 41 40 40 40 39 37 36 34 32 31 33 32 34 33 33 36 36 39 42 44 51 59 64 67 65 70 68 68 77 83 86 90 96 83 67 71 75 86 80 79
64 65 63 62 58 53 48 45 43 42 42 42 41 40 39 37 36 35 34 33 33 34 38 39 46 49 56 61 65 69 73 71 73 68 71 75 81 83 90 94 86 74 80 87 81 77 82
64 64 65 66 64 61 57 53 49 47 46 44 43 43 43 41 38 37 36 36 36 38 42 44 45 49 55 60 67 74 80 80 77 81 73 82 75 84 87 86 74 77 86 85 83 86 85

GFSGBSN_prec_cthk_009.txt.gz
RH
29 29 29 31 31 33 34 34 32 29 28 30 32 32 34 27 17 14 16 16 18 20 19 18 16 15 14 15 16 15 15 15 15 15 12 10 11 11 11 10 10 11 14 15 15 15 14
29 29 32 32 34 34 34 34 29 33 33 32 32 28 22 13 15 15 17 17 19 20 20 19 17 15 16 17 18 16 15 14 15 15 14 11 9 9 10 11 12 13 15 17 18 17 17
30 32 34 34 36 35 35 33 30 29 30 23 23 16 15 15 15 17 18 19 20 21 21 19 17 16 16 18 17 16 14 15 16 16 15 15 13 13 12 12 15 16 16 18 19 21 20
34 36 36 35 36 36 34 30 29 24 22 20 18 17 16 16 18 18 18 18 19 20 19 17 16 15 16 16 15 14 13 14 15 15 16 17 17 16 16 16 16 18 18 19 21 22 23
39 39 38 37 36 36 31 30 27 25 24 21 19 17 18 18 19 17 17 17 19 18 18 16 15 14 14 13 12 11 11 12 13 15 16 16 15 14 15 18 18 18 17 19 21 23 24
41 41 40 38 36 33 30 29 28 25 22 20 19 19 20 19 18 17 17 18 19 18 18 16 14 13 12 12 10 8 9 12 14 14 16 16 15 16 18 16 17 20 20 21 20 20 23
42 40 39 38 35 32 29 28 26 24 22 21 21 20 20 20 18 17 18 19 18 17 17 17 13 11 11 10 8 7 9 10 12 12 15 16 17 20 21 19 19 20 22 23 21 22 22
45 41 38 34 32 29 27 25 25 24 23 22 21 20 21 20 19 19 18 18 18 15 16 13 11 11 11 10 10 8 9 11 12 14 14 16 19 19 20 19 20 21 22 21 22 23 24
46 43 38 34 29 27 24 23 24 23 21 20 19 19 19 18 18 17 15 19 16 14 15 15 13 12 12 13 12 12 11 12 15 17 17 18 18 19 20 23 24 25 22 24 25 25 26
47 43 40 33 29 25 23 20 21 20 20 19 18 18 18 16 16 16 15 16 16 14 17 16 15 15 13 13 14 15 14 17 18 20 22 21 22 24 24 25 26 26 25 27 27 29 30
48 44 40 34 31 26 23 20 19 18 18 18 17 16 17 16 16 16 15 14 15 21 26 19 17 17 15 14 15 18 18 19 21 23 24 25 27 29 30 30 30 30 29 29 30 31 33
49 44 39 36 32 28 25 22 19 17 16 16 15 15 15 17 16 19 16 16 18 25 27 21 20 20 19 20 21 22 22 22 25 28 28 29 29 30 32 31 32 32 31 32 34 36 39
49 45 39 35 33 30 27 24 21 18 15 14 14 14 13 14 14 16 15 18 24 31 25 22 21 22 23 25 27 27 28 29 30 27 35 32 33 34 34 33 35 35 32 35 40 44 41
49 45 42 36 33 32 29 26 23 20 17 15 14 14 14 15 16 14 17 27 26 26 24 22 22 25 26 28 31 32 32 34 34 34 40 41 39 39 40 39 40 41 40 45 43 48 46
48 44 41 37 33 32 30 29 26 23 21 18 16 16 15 14 15 17 27 32 28 27 24 25 28 30 32 32 32 34 38 39 41 41 42 47 43 42 43 43 43 43 48 45 52 61 57
47 44 39 38 35 33 31 31 29 27 26 23 21 18 18 16 17 23 32 30 27 30 31 30 32 32 35 39 40 44 46 44 43 43 42 46 47 43 43 43 43 43 45 46 51 57 56
49 44 40 38 36 34 33 32 31 29 31 29 24 22 25 22 25 28 33 31 32 34 35 36 38 41 43 45 46 47 47 45 45 44 41 40 42 40 41 45 47 49 51 53 53 60 65
52 47 41 38 38 37 36 35 34 31 32 34 29 29 30 29 30 33 33 32 34 38 40 40 40 41 43 45 47 47 49 48 49 47 45 40 40 39 36 43 48 49 50 51 54 52 58
55 50 43 38 37 38 38 38 37 35 37 38 31 32 33 33 36 39 36 35 37 38 40 39 41 42 44 45 47 48 48 47 44 40 39 37 40 40 35 44 46 47 48 51 54 60 62
55 51 45 39 37 38 38 42 41 44 41 38 33 39 34 33 34 37 39 39 40 39 40 40 43 42 42 44 45 47 46 43 42 42 42 41 45 41 40 37 42 47 50 55 59 69 66
54 49 42 40 37 36 38 40 45 47 45 40 37 39 36 41 40 41 40 37 39 40 39 40 41 39 39 44 42 43 40 37 36 37 39 41 45 45 45 45 47 47 50 55 62 64 74
53 49 44 38 37 35 35 37 39 42 44 41 41 43 41 45 43 43 41 38 39 39 38 38 38 38 36 36 33 35 33 32 31 35 40 45 48 50 53 55 54 54 50 60 66 68 70
54 49 45 42 35 35 34 34 36 37 37 39 40 42 41 46 43 43 41 39 38 36 36 35 34 34 34 33 33 32 32 33 36 40 46 51 56 61 57 61 59 53 52 62 65 65 65
51 49 44 41 37 33 34 34 34 35 35 33 34 38 41 47 44 42 39 36 36 34 32 33 32 32 32 34 34 33 32 34 38 47 53 60 64 69 72 70 73 48 59 62 65 61 63
48 48 44 40 37 32 33 35 36 35 35 33 33 33 34 44 42 37 35 34 33 33 33 32 32 33 35 34 35 36 37 34 43 50 55 58 68 75 79 81 72 58 60 62 67 62 65
49 47 45 41 38 33 33 35 37 37 37 36 33 31 29 29 35 32 31 31 34 35 34 37 37 36 36 39 41 43 44 46 45 50 59 65 70 76 86 91 84 65 66 68 71 72 76
54 51 48 45 41 36 36 37 38 38 39 38 36 34 32 29 31 33 32 34 34 35 38 39 39 40 41 49 55 54 53 54 56 58 61 69 75 79 85 89 76 68 70 73 85 85 86
60 56 53 51 47 42 39 38 39 39 39 39 38 38 36 34 34 33 33 33 34 34 38 38 41 44 51 54 56 59 63 60 62 61 63 64 76 81 85 87 82 70 76 81 82 87 87
67 65 61 59 57 53 49 45 42 41 41 40 40 40 40 39 39 38 36 35 35 34 34 38 40 42 45 51 58 63 68 69 68 73 65 71 72 83 85 78 74 75 78 80 87 91 92

GFSGBSN_prec_cthk_012.txt.gz
RH
32 29 29 28 29 29 32 32 32 31 27 23 31 31 31 36 34 28 19 17 17 20 21 22 18 16 17 19 19 16 16 16 15 13 13 15 15 13 10 8 9 10 12 12 13 13 11
32 30 29 30 32 33 33 33 33 28 29 31 31 31 36 29 14 14 18 18 21 21 22 20 16 14 16 19 16 14 14 15 14 15 13 11 11 10 10 11 13 14 16 17 17 18 16
31 30 32 32 33 34 34 34 30 34 34 33 31 29 15 14 16 18 18 21 22 23 22 20 17 17 18 18 17 15 15 15 15 16 15 13 11 12 12 13 15 15 18 19 20 21 19
32 34 34 35 33 34 35 32 27 29 26 20 17 16 16 17 18 18 21 22 23 23 21 19 18 17 20 17 16 14 14 15 16 17 19 19 19 17 16 17 18 17 18 20 20 20 20
35 37 38 36 36 36 35 30 26 24 24 20 19 19 18 19 20 21 22 23 23 21 19 18 17 18 17 14 14 13 13 14 16 18 20 18 16 16 17 17 16 15 17 17 19 20 21
39 42 39 38 38 36 34 30 27 25 23 21 21 20 20 21 20 20 21 22 21 20 18 17 15 15 13 13 10 10 12 14 16 17 19 18 16 16 16 15 17 17 17 17 18 19 18
43 44 40 39 38 36 31 30 27 24 23 21 21 21 21 20 20 20 21 20 19 19 18 19 16 14 12 11 9 10 11 14 15 16 18 17 18 19 18 17 16 17 18 19 19 20 21
46 43 40 39 37 32 29 28 26 23 22 22 22 23 22 19 19 20 20 20 19 18 15 14 13 13 12 10 11 10 10 12 13 14 14 14 17 17 18 17 17 19 19 20 21 22 23
48 45 40 37 33 29 28 26 24 23 22 22 23 21 21 20 21 20 19 19 16 15 16 14 13 13 13 13 12 11 11 12 14 15 15 16 16 18 19 20 21 21 21 24 24 23 23
49 48 42 35 31 28 24 24 23 22 22 22 22 21 20 20 20 18 19 16 14 15 17 17 16 14 13 13 14 13 13 14 17 19 19 20 23 23 23 24 25 24 24 26 25 25 25
51 47 44 37 31 27 23 21 21 21 20 20 20 20 19 17 18 18 18 18 15 20 23 17 17 17 14 15 16 18 16 18 19 21 23 24 26 27 28 29 29 31 29 28 27 27 27
51 47 42 37 31 27 23 20 19 19 19 18 18 18 18 18 16 17 16 17 18 24 25 21 20 20 20 19 19 20 21 20 23 24 24 26 27 27 29 28 29 30 30 30 32 34 39
52 47 43 37 32 28 24 21 18 17 17 17 17 16 16 17 16 17 16 17 22 24 22 21 21 20 21 23 23 24 25 26 26 26 28 27 29 31 32 30 33 33 32 36 43 44 43
53 49 44 37 34 29 27 24 21 18 16 16 15 15 15 14 14 17 16 25 23 24 22 20 20 21 23 25 27 28 27 28 29 28 29 32 38 36 37 38 38 37 37 42 45 44 42
53 49 45 39 35 32 29 27 22 20 17 15 14 14 14 14 16 15 24 28 25 21 19 19 22 24 27 29 29 30 32 32 35 36 36 37 38 38 40 39 39 40 42 40 45 53 49
52 47 45 41 36 34 32 29 24 22 19 16 16 15 15 15 15 20 29 23 22 21 24 26 28 29 30 32 34 35 40 40 39 37 36 38 41 38 38 38 39 38 39 44 42 56 42
53 47 43 41 38 34 34 31 27 25 22 20 18 20 17 16 20 29 30 26 26 29 29 31 32 33 36 39 40 40 40 41 40 39 37 35 36 34 33 37 38 41 42 42 41 47 48
54 49 44 41 39 36 35 33 30 29 28 25 22 26 21 21 26 28 27 27 31 33 35 37 37 37 39 42 42 41 42 42 43 39 33 31 33 33 33 39 42 43 44 43 46 50 54
55 52 46 42 40 38 37 36 32 31 32 31 29 30 27 27 33 34 30 33 34 36 38 37 38 37 39 41 43 42 43 42 40 36 36 35 35 32 34 40 43 45 45 45 48 53 56
57 55 48 43 40 39 40 39 37 34 37 32 31 38 34 32 30 30 33 36 37 39 37 36 37 37 39 40 40 43 42 40 37 35 33 33 36 34 30 32 36 41 44 49 52 60 58
58 59 52 44 40 40 40 43 42 38 37 34 32 35 33 36 33 33 35 38 39 39 37 37 37 37 36 41 40 38 35 32 31 31 32 35 37 39 38 37 38 46 48 49 50 58 69
59 57 54 45 39 37 39 42 46 45 40 36 35 35 34 34 34 35 40 42 39 38 37 36 36 36 33 33 29 31 27 26 25 31 34 37 42 44 44 43 42 45 47 52 58 61 66
60 56 51 46 41 37 37 39 41 44 42 38 38 37 37 41 39 42 43 40 37 36 37 36 35 33 33 30 28 29 30 30 30 34 39 45 49 53 57 53 51 59 50 52 57 64 68
59 56 51 46 40 37 36 36 38 38 37 38 39 40 41 46 45 45 43 40 38 36 35 34 32 32 31 31 31 30 30 31 34 39 44 55 56 63 68 67 67 51 52 54 58 60 63
58 58 54 49 45 37 36 36 36 37 37 35 36 40 42 50 45 44 43 40 37 35 35 32 33 31 33 33 33 39 32 35 40 42 46 52 61 70 75 69 54 51 53 59 62 60 63
52 53 53 49 44 41 35 36 37 37 36 35 35 35 38 43 46 42 39 37 36 36 36 36 35 34 34 36 37 43 37 36 36 43 53 55 61 68 76 82 76 63 60 61 64 69 73
50 49 49 49 44 40 38 35 38 38 38 36 35 34 33 32 36 35 34 33 33 33 35 37 38 38 38 42 48 49 43 40 41 52 55 61 66 70 74 84 71 66 68 70 80 83 79
50 48 48 48 46 42 40 36 37 40 41 40 38 37 34 33 34 33 33 32 33 33 35 37 40 41 43 48 51 49 52 46 47 46 51 56 72 77 80 84 87 72 74 86 76 76 82
59 52 49 49 49 45 42 40 40 41 42 42 42 40 38 37 37 36 34 33 32 33 34 36 36 33 40 46 50 51 52 54 56 56 53 61 61 67 72 69 76 79 83 79 80 84 88

GFSGBSN_prec_cthk_015.txt.gz
RH
33 31 31 28 28 27 28 30 32 32 32 29 27 24 27 27 28 30 30 29 28 25 22 23 18 20 19 27 25 18 17 14 13 14 18 20 22 18 15 12 11 11 9 8 7 8 10
33 32 31 28 28 30 31 33 33 33 29 27 24 28 28 34 32 33 30 23 19 22 25 23 18 19 21 32 19 17 17 16 17 19 17 18 18 13 12 15 20 14 14 14 14 14 12
34 32 30 28 29 32 33 34 34 37 28 28 32 31 39 35 25 18 17 19 23 26 24 21 17 16 22 25 16 16 15 14 13 17 17 12 12 13 12 13 14 15 17 17 18 18 17
34 31 30 30 32 34 34 34 30 35 28 34 33 27 22 13 15 18 20 24 25 24 21 18 16 15 26 16 17 14 13 14 14 14 14 12 12 18 22 17 16 19 21 28 21 19 20
32 32 32 33 35 34 35 34 32 33 29 24 24 17 16 18 18 20 23 24 24 22 20 19 18 21 21 16 17 15 15 17 17 18 19 18 20 21 18 22 23 21 31 25 24 19 22
33 34 35 37 37 36 38 33 27 25 22 19 19 18 19 18 21 23 24 24 23 21 20 19 20 23 16 18 14 13 14 15 19 20 20 19 20 24 23 28 29 26 21 19 22 23 17
35 37 39 38 38 37 37 32 28 25 23 21 20 20 20 21 22 22 23 23 22 22 21 26 18 21 13 12 10 14 13 16 18 21 29 19 31 34 25 21 23 17 18 22 23 21 18
37 41 41 40 39 38 35 31 28 26 23 22 22 22 22 21 21 23 22 36 29 22 19 18 15 14 12 13 14 13 14 18 18 25 18 17 27 19 18 18 17 19 21 22 21 19 19
40 43 41 41 39 37 32 30 28 26 24 26 26 24 21 20 21 21 26 25 20 18 18 16 16 15 13 15 15 13 14 14 17 18 16 26 22 16 18 20 20 23 21 25 24 22 21
44 45 42 40 36 32 30 29 26 25 25 27 25 23 21 21 21 23 25 18 17 19 22 15 16 14 14 14 14 12 11 14 15 18 18 20 18 20 21 23 21 27 24 23 23 24 34
48 47 43 38 35 29 27 27 26 25 25 25 24 23 22 22 26 24 21 16 16 22 30 17 16 14 13 17 16 15 13 16 21 20 21 26 24 27 28 27 25 29 26 26 26 27 27
49 48 44 39 33 29 25 25 25 23 23 23 23 21 20 22 22 22 18 15 15 32 29 18 17 19 18 17 17 19 19 17 20 20 23 24 24 26 27 26 25 26 29 28 30 34 37
51 49 44 39 33 28 24 22 23 22 21 20 20 21 20 20 23 19 17 19 22 36 21 20 20 21 23 21 21 22 23 25 28 31 31 27 30 28 28 33 33 32 36 46 50 47 54
52 49 43 38 34 30 26 22 20 19 20 19 18 18 19 18 17 17 17 26 35 26 22 21 22 23 25 24 25 25 27 28 26 26 30 35 43 33 32 34 36 36 37 45 46 48 44
55 50 43 38 36 32 28 23 20 18 17 18 18 18 19 17 17 18 24 36 28 21 21 20 21 24 24 24 26 28 30 28 27 30 38 35 38 33 33 33 33 39 40 33 42 47 44
57 52 45 39 37 34 30 26 22 18 17 17 20 20 21 16 16 17 34 35 24 20 19 20 27 29 32 28 29 31 33 34 34 31 31 32 40 33 33 30 35 35 33 45 43 53 40
58 53 47 41 38 37 34 28 25 20 18 17 21 23 18 16 15 25 33 25 22 21 23 30 32 30 32 32 34 38 36 35 34 33 31 29 29 34 29 37 39 45 47 41 37 44 51
58 53 48 43 39 38 37 32 28 25 21 20 24 32 16 16 24 32 33 26 25 26 28 31 34 32 37 36 37 38 37 38 37 34 33 29 31 32 30 31 32 36 41 41 47 48 51
57 54 47 44 41 38 39 36 31 30 25 28 31 35 19 20 37 35 30 28 28 30 32 36 36 35 37 37 38 37 40 38 35 32 35 30 34 34 33 41 42 39 42 43 45 49 47
57 55 49 44 42 40 40 39 34 34 32 30 34 35 25 26 33 30 29 28 31 34 36 37 36 34 35 36 36 39 38 36 32 30 28 28 31 31 33 32 33 37 38 41 47 55 58
55 57 52 46 42 41 41 42 37 36 38 33 38 38 31 32 31 32 31 32 34 35 37 36 35 36 38 38 38 39 36 31 28 27 29 29 33 34 33 32 32 37 42 43 44 49 57
55 57 54 48 43 42 43 44 42 40 40 37 37 37 34 35 34 34 34 34 35 38 37 36 37 37 36 37 32 34 30 27 26 28 32 29 38 38 37 36 34 39 40 41 45 52 55
57 58 57 50 44 41 42 45 46 43 39 41 33 32 36 34 34 36 35 38 39 40 39 37 37 36 37 35 32 30 29 29 28 31 34 34 38 41 46 41 42 54 46 43 49 54 59
60 60 59 54 47 41 40 42 45 47 44 40 38 37 37 37 38 38 37 40 43 42 38 39 38 38 37 31 27 28 29 30 31 34 35 42 43 52 57 55 63 51 48 48 50 55 57
63 62 59 55 49 44 40 39 41 40 40 40 39 40 40 45 41 42 42 44 44 41 40 40 37 34 31 31 31 31 32 34 36 36 38 41 50 58 63 54 46 49 52 55 55 54 58
63 63 60 53 48 44 39 39 39 41 40 38 37 40 43 44 49 45 47 47 48 46 42 39 34 31 32 34 34 41 38 31 36 39 40 45 52 56 64 70 68 57 61 60 62 66 73
63 62 61 56 52 48 43 37 38 40 41 41 39 37 42 46 48 48 50 48 48 43 41 37 36 35 34 39 41 46 38 33 35 44 51 54 59 62 64 72 60 57 63 64 73 80 78
59 59 59 57 53 49 45 41 38 40 41 41 39 38 37 38 40 45 45 44 40 38 41 38 37 39 40 43 45 43 48 39 39 35 42 48 60 64 68 76 77 64 67 79 75 81 83
53 53 53 53 53 50 45 42 40 38 40 42 44 39 37 39 39 37 36 35 36 38 39 37 37 35 35 41 43 45 47 49 46 45 37 42 45 57 64 64 66 72 78 83 82 87 85

GFSGBSN_prec_cthk_018.txt.gz
RH
36 35 35 32 29 27 26 25 26 28 30 30 28 26 25 25 25 23 24 26 29 29 29 26 21 20 33 37 31 15 15 15 16 19 22 27 32 29 25 24 18 16 15 9 6 7 10
29 39 39 31 30 26 25 27 28 31 32 31 29 27 24 24 27 27 27 29 29 30 26 23 20 22 29 42 24 18 14 16 21 21 24 30 34 28 20 19 25 12 11 9 8 8 8
37 41 33 32 29 25 27 29 32 32 33 28 27 22 21 31 30 31 32 31 29 24 26 22 20 21 37 38 21 19 16 18 19 26 27 22 22 22 19 18 19 16 17 14 13 13 13
39 36 33 33 26 27 30 31 32 31 33 27 25 30 33 42 33 30 27 24 23 27 25 22 18 18 36 26 19 15 16 16 16 20 20 14 14 24 27 18 13 16 23 28 24 19 17
36 34 34 29 28 30 31 32 32 34 29 29 33 35 37 25 20 19 22 26 27 25 23 19 17 22 33 13 12 13 12 18 15 14 14 13 15 18 16 16 21 21 33 35 31 23 24
39 36 32 28 31 32 32 33 32 39 29 36 26 20 17 18 20 24 27 27 24 22 20 18 22 32 20 19 15 14 15 17 20 20 18 17 22 23 21 31 40 37 26 27 24 25 16
39 36 31 31 35 34 34 35 31 29 24 22 23 20 21 21 25 26 25 23 22 23 26 31 22 26 18 15 13 16 15 17 21 22 28 20 30 40 29 25 28 28 24 24 32 23 19
37 35 32 35 37 35 36 33 29 27 25 24 23 22 23 25 24 25 32 43 39 27 25 23 20 19 15 16 15 15 14 20 19 28 28 21 30 34 30 18 19 26 23 26 26 21 17
38 36 35 40 37 37 36 32 32 29 27 26 25 25 24 24 24 28 40 42 30 20 20 19 19 15 14 17 17 14 15 18 21 30 20 30 30 16 13 19 20 25 22 30 27 23 20
38 38 39 40 38 37 35 31 31 27 27 28 29 26 25 24 25 28 36 23 21 21 20 13 15 12 13 15 14 12 14 17 19 23 19 24 22 17 19 22 20 27 27 25 21 23 31
39 41 42 40 37 35 32 31 28 26 28 30 29 27 26 26 33 32 28 18 21 29 35 17 16 15 13 19 17 14 9 12 23 22 21 29 23 26 28 29 23 28 27 22 23 26 26
41 44 44 40 36 33 30 30 27 27 29 30 28 27 26 32 29 31 23 17 19 50 41 18 17 18 17 16 18 17 14 17 19 20 24 26 23 24 24 22 21 22 26 27 29 30 43
43 46 46 40 36 31 28 28 26 27 28 29 28 27 26 30 33 24 18 17 27 46 21 20 20 21 22 21 20 21 22 22 30 30 29 27 28 26 23 31 35 32 37 50 68 60 58
46 47 46 41 35 31 26 25 24 25 26 26 25 25 23 24 27 20 18 28 40 30 24 21 21 23 26 23 22 24 26 26 26 30 39 42 50 35 30 32 35 36 36 52 53 64 55
49 50 46 41 35 31 28 23 22 22 24 23 22 21 22 20 20 20 27 38 36 24 25 22 23 27 26 23 25 27 34 29 26 28 38 37 42 30 29 29 29 38 44 28 40 49 46
52 52 47 42 37 33 29 24 21 20 21 21 21 20 25 19 18 19 34 42 37 25 21 22 25 29 34 30 30 35 33 30 31 29 31 31 42 32 27 32 38 30 28 43 54 58 47
56 53 48 41 39 35 32 27 24 20 19 20 24 26 28 18 19 24 36 40 28 21 20 24 35 30 41 34 37 38 38 34 33 29 30 29 31 33 33 34 33 40 44 38 37 45 54
59 54 48 43 40 39 35 30 27 21 19 20 23 34 30 16 23 25 38 33 24 20 22 29 33 35 38 35 41 42 38 38 33 32 32 23 29 37 30 27 27 31 36 37 50 44 54
61 56 50 44 42 42 39 32 29 22 20 23 31 50 27 18 34 40 38 30 26 25 26 30 35 36 38 40 42 39 39 37 34 32 33 25 32 39 38 43 38 33 37 36 42 50 51
62 58 52 46 43 43 42 37 32 25 24 32 48 46 25 22 44 34 33 29 29 29 31 34 37 35 37 39 37 37 40 38 33 26 21 25 26 27 34 30 30 31 30 34 40 57 56
62 58 53 50 44 44 45 41 34 30 31 42 54 40 23 25 33 36 33 31 32 32 32 36 37 34 37 39 37 39 39 34 29 22 23 25 28 28 28 28 29 29 31 34 39 44 52
62 60 54 50 48 44 45 45 39 37 37 38 51 50 30 39 27 34 37 34 33 33 35 37 38 38 40 40 37 40 35 30 28 25 30 26 34 31 30 28 30 29 31 36 39 45 47
63 62 58 52 47 46 46 47 44 42 44 44 43 38 36 32 36 37 36 33 35 36 38 40 41 42 42 38 36 36 32 29 27 31 30 31 36 37 41 35 35 51 44 40 43 50 53
64 63 61 55 49 45 46 47 48 45 44 47 40 40 41 40 35 36 35 37 39 40 39 42 43 42 41 38 33 30 28 30 30 30 31 35 37 45 49 46 51 37 35 39 45 50 54
64 63 63 59 52 45 43 44 47 48 44 41 39 42 41 42 37 39 36 39 43 42 46 46 44 40 37 37 34 29 32 30 33 31 32 37 41 49 55 47 35 35 44 46 48 51 56
65 63 63 62 56 48 41 41 42 44 43 41 39 40 41 39 43 40 41 45 45 48 50 51 45 39 37 39 36 38 41 30 38 35 36 39 45 48 55 58 52 40 49 51 53 59 69
66 64 64 65 60 53 45 40 40 43 43 40 39 39 44 48 44 46 52 49 52 51 53 48 44 38 38 39 41 43 37 28 37 43 48 48 50 54 56 59 49 42 48 53 61 71 75
68 66 65 65 61 53 47 42 39 41 42 44 43 39 40 45 48 52 53 57 54 55 59 52 45 42 42 45 43 41 45 41 37 34 41 44 52 55 54 58 58 49 55 62 65 70 80
67 65 64 64 61 55 51 47 44 40 41 44 46 43 41 41 43 47 51 54 52 51 51 45 41 39 37 40 41 42 43 47 46 42 34 45 42 49 48 47 46 56 62 67 71 79 84

GFSGBSN_prec_cthk_021.txt.gz
RH
27 29 30 32 35 34 31 27 27 24 25 26 29 27 25 24 22 19 20 24 26 24 28 30 26 26 36 35 32 21 17 19 19 21 27 30 31 31 25 23 23 20 17 18 20 18 14
27 30 32 33 35 39 30 27 24 26 27 29 30 29 26 24 23 23 20 24 27 32 33 29 25 35 37 41 32 17 18 22 26 28 34 32 36 31 24 24 18 13 9 7 4 6 7
30 33 37 34 39 32 30 27 24 28 30 30 31 29 26 22 21 26 25 27 32 35 31 26 23 33 38 34 26 19 19 25 26 27 28 27 32 27 23 20 19 13 12 12 11 10 9
29 31 36 39 36 31 29 26 27 30 31 31 32 26 21 19 27 27 28 34 36 31 26 21 21 34 36 29 18 17 16 18 20 22 19 22 22 19 22 17 16 17 21 24 25 26 17
27 32 38 39 32 31 28 27 29 31 30 28 24 22 24 32 31 32 35 33 27 27 25 21 22 28 34 19 15 15 13 14 16 17 12 13 19 18 22 27 32 33 39 38 37 27 21
32 41 41 34 32 29 29 29 30 35 34 31 32 37 38 37 35 39 26 26 28 26 23 21 25 34 24 20 14 12 12 13 13 15 15 18 29 32 37 34 38 38 36 38 35 26 23
37 41 36 35 30 30 31 32 32 36 30 38 31 29 21 25 25 24 27 28 27 25 22 23 32 24 18 16 13 13 13 16 18 21 30 33 33 35 30 32 36 32 30 33 31 26 25
40 42 37 33 30 32 34 33 33 34 29 25 30 22 21 23 27 27 27 29 38 33 28 24 27 24 19 19 18 18 17 20 23 28 33 34 32 38 37 30 25 32 29 34 27 25 23
42 41 36 31 33 36 35 34 32 31 28 24 23 23 25 28 28 35 42 44 37 33 28 23 24 18 19 19 17 14 18 21 28 28 28 30 32 27 21 26 22 26 30 29 26 24 19
42 41 34 32 36 37 36 34 31 30 29 27 25 26 28 27 33 40 41 38 31 27 25 19 17 12 16 16 15 13 16 19 23 28 26 26 28 26 18 19 20 26 26 26 24 22 26
44 40 34 34 39 37 37 33 31 32 30 29 29 28 27 28 39 38 38 28 29 30 39 18 16 13 13 19 17 11 13 17 23 23 22 25 24 24 26 27 26 25 24 22 22 24 27
49 39 35 37 39 37 36 32 32 33 31 31 29 29 28 34 38 36 33 25 30 54 37 20 16 15 14 17 19 17 11 17 20 22 23 27 27 24 25 22 23 23 27 29 34 34 45
52 39 36 40 39 36 34 32 31 30 31 32 29 29 29 34 35 31 26 24 53 60 22 19 20 20 21 19 18 18 16 23 29 28 29 28 28 26 23 28 32 30 35 53 57 74 67
53 39 39 43 39 35 31 30 29 29 30 32 30 29 28 32 31 25 20 29 48 31 26 20 21 27 25 22 24 24 25 26 29 38 39 41 47 35 27 32 33 32 35 51 54 70 62
51 39 43 45 39 35 29 29 27 28 29 29 29 28 26 25 28 21 22 49 45 31 26 23 24 30 27 25 25 33 36 34 29 33 40 47 42 34 27 24 30 35 39 29 45 47 51
47 41 46 47 39 35 31 26 25 26 27 27 25 25 25 23 23 21 33 48 38 29 28 24 26 30 35 27 29 34 34 32 25 28 33 38 42 31 29 35 34 31 27 43 47 51 47
46 44 49 47 39 36 32 25 24 23 25 25 24 24 24 23 21 22 39 47 33 28 25 25 35 35 45 37 37 40 39 33 34 29 28 34 38 32 32 33 31 35 38 34 34 46 56
49 49 50 45 40 38 33 27 25 23 22 23 25 29 30 22 22 26 32 37 30 25 22 26 34 36 41 37 42 42 44 38 33 33 32 26 34 39 34 29 26 26 32 34 48 44 59
52 53 51 45 41 40 36 31 27 22 21 23 26 37 37 20 28 29 36 36 30 22 23 26 34 35 38 38 43 45 43 38 34 34 31 26 30 44 39 39 31 28 33 32 42 49 47
56 57 53 46 43 44 40 33 29 22 21 23 41 48 40 23 34 32 40 36 32 27 27 28 34 34 39 41 40 43 42 36 33 23 20 27 25 31 43 31 27 27 26 27 38 56 53
60 60 57 48 45 46 43 36 31 24 22 40 52 47 35 25 40 35 41 32 30 30 29 31 35 37 37 41 40 42 41 38 31 21 21 25 30 28 27 24 23 25 26 28 32 37 46
66 64 56 49 47 48 46 39 35 27 33 53 51 60 29 22 35 36 39 35 34 32 30 31 37 41 42 42 41 42 39 34 31 24 24 23 34 28 25 29 30 27 29 34 33 37 41
70 66 61 51 48 50 50 44 39 33 42 48 65 60 38 41 25 38 40 35 36 35 33 35 41 46 47 41 38 38 37 32 30 27 28 32 34 36 41 36 36 44 36 32 34 39 43
70 65 61 56 49 50 52 49 44 40 42 45 42 46 42 38 40 34 35 35 39 36 38 41 43 46 45 42 40 39 38 34 30 30 32 33 36 41 44 39 34 35 29 31 35 40 43
71 66 63 57 53 49 54 52 50 48 47 45 43 43 39 44 37 38 37 40 42 40 39 41 43 46 47 43 40 36 40 31 34 33 35 33 36 43 48 48 34 31 33 35 39 43 47
73 67 67 60 54 50 48 53 52 49 46 45 43 42 40 40 41 43 39 41 45 43 44 46 47 47 47 46 43 41 45 33 38 36 37 39 41 42 51 49 48 38 38 38 41 51 52
72 69 67 65 58 51 47 46 49 53 48 44 41 40 40 40 41 42 43 43 42 44 50 49 50 50 47 47 46 44 42 36 43 45 45 47 48 49 51 51 43 32 38 37 50 47 56
71 68 67 67 63 57 49 45 44 45 45 44 39 38 37 40 42 44 45 45 44 46 50 49 51 50 53 52 47 43 44 41 39 38 42 41 48 50 51 55 53 34 39 42 41 48 56
70 69 67 69 68 64 58 49 44 43 43 44 42 39 37 36 39 49 53 54 52 54 51 54 50 47 46 47 44 44 44 45 44 43 36 42 38 46 43 42 36 40 42 43 43 51 64

GFSGBSN_prec_cthk_024.txt.gz
RH
22 22 24 26 26 26 29 33 33 28 24 24 23 24 27 25 21 23 23 21 20 23 24 25 28 29 33 33 25 19 19 20 21 23 30 32 34 35 29 28 25 24 23 23 23 20 19
24 24 25 25 27 29 32 32 34 26 25 23 25 26 29 24 22 22 19 18 23 26 28 30 29 34 36 36 24 22 24 26 28 29 32 33 31 30 27 27 25 21 19 16 19 21 14
23 22 24 25 29 31 32 36 31 26 23 24 28 29 30 26 23 23 21 18 24 30 34 31 30 39 37 29 25 23 24 28 31 33 34 29 26 29 26 23 22 16 7 6 9 13 10
22 23 24 25 27 30 36 31 28 25 23 27 30 30 29 27 22 20 25 27 29 34 35 32 37 37 35 30 27 25 24 26 29 31 29 27 25 24 21 17 14 14 16 26 26 19 12
22 23 23 24 27 32 34 32 28 23 26 29 29 28 25 21 19 24 29 31 35 35 34 28 30 36 31 26 20 20 19 21 22 27 25 25 25 23 21 21 29 29 25 29 29 29 25
25 24 24 27 31 35 35 30 26 25 29 31 27 24 22 22 30 31 33 32 41 29 24 23 31 32 26 18 14 16 16 17 18 21 13 23 24 27 32 34 38 37 33 29 31 29 28
28 25 27 30 36 37 33 28 26 28 32 36 28 32 34 30 34 39 45 35 27 26 24 23 31 31 24 19 15 12 12 12 13 15 28 31 34 35 32 37 37 36 35 34 34 31 29
28 27 28 35 37 35 30 29 28 31 34 33 31 35 30 35 39 37 29 30 34 33 27 31 30 24 17 17 14 12 12 17 24 35 36 34 33 35 34 33 38 40 37 37 32 30 30
27 29 31 37 37 34 30 30 31 34 33 29 28 26 22 26 30 30 37 38 38 35 35 29 24 20 21 22 19 18 21 27 29 35 32 32 32 31 35 37 36 41 38 37 36 31 28
31 31 35 40 37 31 31 32 33 32 30 24 24 24 26 29 33 37 37 41 39 32 32 26 23 20 23 23 19 19 22 26 27 27 27 29 33 32 27 22 24 29 29 35 32 28 24
32 36 38 39 34 32 34 33 34 32 29 27 25 26 29 31 38 36 41 40 35 32 37 21 19 18 21 21 15 15 21 25 25 25 25 26 29 27 28 26 24 23 22 23 25 25 27
31 39 40 38 34 33 36 35 34 32 32 27 27 29 29 34 40 40 41 33 33 46 33 23 20 14 19 22 17 11 15 23 26 26 28 30 31 28 26 25 24 23 24 28 32 34 42
34 40 43 38 36 35 36 35 34 32 31 28 29 29 30 40 41 36 35 32 45 58 23 22 18 15 18 19 18 14 17 24 29 29 28 29 31 25 25 27 28 26 34 50 55 63 62
38 43 44 40 36 38 36 35 33 33 30 30 29 30 32 37 36 34 33 42 59 33 27 19 22 23 23 23 24 23 23 28 28 33 33 38 43 30 26 33 33 30 33 47 54 62 58
41 48 49 40 38 39 36 34 31 32 30 31 29 29 29 30 32 33 32 61 51 32 26 23 25 28 26 25 25 28 30 29 32 37 37 41 44 34 23 26 33 34 32 31 43 48 54
47 55 48 41 40 39 36 33 31 30 30 30 29 28 27 27 28 26 38 56 42 31 29 25 27 28 32 25 28 31 33 35 29 35 37 39 42 29 29 30 27 25 27 37 40 43 45
54 59 47 43 43 40 35 31 29 27 29 29 28 27 26 27 25 24 43 50 36 31 28 25 29 32 35 34 28 34 37 33 28 29 30 36 38 32 34 34 30 31 31 31 33 43 49
58 60 49 44 47 41 35 28 27 26 28 28 28 28 28 27 25 28 30 44 32 31 26 28 31 37 39 38 42 44 43 38 34 32 29 34 36 39 34 26 25 27 29 31 41 36 53
64 58 50 48 49 42 35 28 25 25 26 26 26 35 33 27 27 30 27 35 32 28 26 24 33 38 40 41 48 47 46 41 32 34 32 30 33 44 39 37 31 29 29 31 35 42 42
67 56 49 51 50 43 36 29 25 24 24 26 30 42 39 27 28 25 38 34 34 26 25 23 32 38 38 41 40 46 44 38 31 32 27 29 31 31 37 31 25 23 25 29 33 47 43
70 56 52 53 50 43 38 31 27 23 23 28 37 39 35 27 25 28 35 37 33 28 26 26 30 36 37 40 42 45 42 38 34 26 23 28 30 29 27 26 24 25 25 26 28 32 39
67 56 54 54 49 44 39 34 29 23 24 35 44 42 34 29 29 30 41 36 32 28 29 30 30 35 38 39 38 43 38 36 33 27 24 27 33 27 24 28 29 26 25 29 31 29 34
67 58 56 54 49 47 41 35 30 25 30 47 51 48 32 33 36 37 35 35 33 35 31 31 34 40 44 42 40 42 40 39 34 30 30 28 32 32 31 36 34 35 29 29 29 31 32
68 61 58 56 50 49 43 37 32 29 39 61 53 48 40 39 39 36 39 38 38 37 36 36 35 40 45 46 43 40 41 40 39 35 31 34 39 39 38 36 28 27 27 27 30 32 35
67 66 61 59 51 52 47 41 35 37 49 62 58 50 42 44 38 36 38 45 42 42 40 39 37 40 46 47 48 45 48 43 42 40 39 34 38 44 38 44 29 28 30 30 31 34 38
71 69 65 58 52 54 53 46 41 39 47 46 50 48 43 38 42 42 40 42 44 42 43 41 40 42 45 53 51 50 48 33 42 39 40 40 37 36 49 36 34 27 31 31 32 41 39
73 71 67 61 52 52 58 53 49 45 42 42 42 39 37 38 41 41 42 43 42 41 43 44 43 45 46 52 58 51 51 41 46 44 44 48 48 48 51 48 38 29 33 33 44 36 38
74 71 68 62 57 50 52 57 56 52 49 46 42 41 39 39 42 43 42 41 41 38 43 43 46 46 50 51 53 53 51 46 43 40 41 42 47 50 52 53 43 29 36 38 36 39 41
76 71 71 65 59 54 49 49 51 50 49 43 38 38 37 36 42 45 46 44 42 43 43 47 42 43 46 49 51 52 50 51 45 44 38 37 33 39 38 38 30 32 33 36 40 44 45

GFSGBSN_prec_cthk_030.txt.gz
RH
31 29 26 22 19 19 18 20 21 21 23 22 23 26 29 24 21 23 26 26 21 17 20 21 22 23 24 28 30 28 25 23 22 19 20 26 28 33 36 35 35 32 31 30 38 41 36
34 30 27 23 20 20 20 21 21 22 23 22 24 29 28 23 22 25 26 24 19 20 20 22 24 26 27 33 30 29 28 26 26 26 32 35 37 39 37 35 31 29 26 26 26 26 23
40 33 27 27 22 21 22 22 23 23 23 23 26 28 23 21 25 27 26 23 21 21 21 26 27 27 32 34 30 31 29 29 28 31 39 40 39 38 34 32 31 26 25 24 22 22 23
44 36 29 26 24 23 23 22 23 24 24 25 27 24 21 23 28 28 26 22 21 18 23 30 32 34 35 32 29 31 30 30 32 38 38 40 38 35 33 30 26 25 21 21 18 16 13
47 37 32 27 26 25 25 22 23 24 25 27 27 23 21 26 29 29 26 23 21 21 27 33 38 40 37 33 29 32 33 35 36 41 38 38 37 32 27 27 28 25 27 24 17 13 12
45 37 32 30 26 26 25 23 24 25 26 28 27 22 24 26 28 26 25 24 24 32 31 37 44 44 33 34 29 31 32 35 38 41 37 38 38 33 30 28 27 21 31 28 25 23 22
47 40 32 31 27 26 25 24 25 27 26 29 26 24 27 26 26 24 25 26 35 35 36 36 42 33 34 34 27 31 32 38 37 38 36 35 36 36 33 27 28 24 28 28 29 26 28
49 46 33 31 28 27 25 26 26 28 28 29 26 27 25 24 22 22 27 36 38 39 37 36 35 34 32 34 30 30 31 34 36 37 34 31 31 29 29 32 32 26 30 32 31 30 30
61 50 34 30 29 26 27 27 28 28 29 28 28 27 27 26 27 33 41 45 49 44 34 33 34 34 27 23 23 25 29 30 29 34 32 34 30 30 33 42 36 39 32 35 36 36 36
69 56 37 31 29 27 28 27 29 30 29 28 29 31 30 32 37 47 50 53 47 34 32 34 34 27 24 22 20 22 24 27 29 32 32 36 36 35 44 41 40 40 39 35 38 38 42
74 67 43 32 29 30 30 29 30 29 29 27 32 30 32 35 43 48 44 38 36 35 43 32 30 24 23 21 18 19 21 23 27 32 30 32 33 36 39 35 30 29 30 34 36 37 37
97 78 49 35 32 32 30 32 30 31 29 28 32 30 33 33 39 39 39 37 36 46 39 29 24 23 25 24 19 19 24 26 31 35 31 36 35 34 33 32 28 26 29 33 37 38 44
89 89 56 38 36 35 33 32 32 31 30 31 30 30 33 35 35 39 37 37 40 52 27 26 25 27 29 28 22 24 31 35 36 39 39 36 35 32 30 29 28 28 32 44 48 51 50
96 87 65 43 41 39 35 34 35 33 32 32 31 28 33 39 38 41 38 36 39 45 29 25 23 25 27 26 26 28 33 35 33 33 39 40 39 31 28 28 31 30 33 47 46 56 51
98 94 71 45 45 41 39 39 36 36 34 33 32 32 38 43 41 38 35 43 48 43 28 23 21 21 25 25 21 23 28 30 31 32 35 40 37 31 27 29 32 33 35 35 49 50 55
87 97 58 49 47 44 44 42 40 38 37 34 32 36 41 42 39 38 41 48 49 37 27 20 20 22 26 25 25 25 26 27 27 28 32 35 38 33 32 30 33 34 34 37 40 39 38
99 97 53 52 48 47 50 45 42 41 40 38 38 40 39 40 38 38 48 47 48 34 27 23 26 28 29 28 31 29 28 29 28 31 33 37 38 44 35 32 32 34 31 32 34 40 42
98 84 57 54 51 50 51 44 45 44 46 41 39 40 38 39 40 44 50 49 46 34 32 31 29 32 35 36 37 35 35 34 35 33 33 39 45 51 43 33 32 30 29 28 33 28 46
98 75 60 54 50 49 49 45 47 47 44 41 37 42 39 36 40 48 47 52 42 36 35 33 33 34 39 46 47 39 38 37 39 32 33 36 43 53 42 35 32 28 31 33 31 34 36
90 70 60 54 49 49 48 45 48 47 44 43 38 46 42 38 32 42 45 49 43 38 35 34 35 36 41 50 49 52 50 45 42 38 31 34 40 39 41 31 31 29 31 30 27 39 35
77 66 58 50 49 48 45 45 47 46 45 44 40 41 35 40 36 38 41 43 42 37 33 32 34 36 39 50 50 51 51 48 42 40 36 32 37 38 36 34 29 24 25 28 26 26 29
69 61 53 52 49 47 45 46 45 44 46 47 43 41 34 32 31 34 37 38 38 36 34 28 30 34 36 46 46 48 45 44 39 37 36 37 39 32 35 37 34 27 24 24 25 25 29
69 62 57 55 55 49 45 44 42 41 42 44 42 38 30 34 33 32 34 34 34 30 32 30 28 28 35 41 42 42 40 40 36 35 37 36 37 34 35 36 31 29 23 24 24 25 24
69 63 57 57 58 49 47 45 40 39 39 39 40 41 35 35 30 30 28 31 32 29 31 32 30 30 35 40 43 42 42 42 41 41 36 36 36 36 36 33 31 18 20 22 24 24 24
68 67 61 62 59 50 49 42 37 36 39 38 41 45 39 38 28 28 30 34 34 36 36 36 32 31 35 38 48 50 49 44 44 47 43 39 38 43 39 39 25 18 21 26 28 25 26
66 63 68 66 63 53 48 41 35 34 36 39 46 44 42 38 30 27 31 32 36 38 39 40 38 35 36 40 42 48 51 44 42 45 46 44 43 42 50 38 33 22 23 25 26 34 24
65 68 65 66 63 55 46 41 34 32 35 49 55 53 45 39 36 35 34 32 31 37 43 40 41 39 37 42 49 47 43 40 45 45 54 55 53 47 55 45 34 23 26 28 35 29 26
66 69 68 66 63 54 50 42 35 32 41 46 56 49 48 47 44 43 42 42 39 38 40 40 43 44 43 45 48 49 49 46 44 40 49 48 54 55 54 54 42 26 31 34 30 27 28
67 68 71 69 63 61 49 41 35 36 45 87 78 56 48 47 52 49 47 44 41 36 38 43 42 40 40 45 46 47 50 48 44 44 42 44 39 44 41 39 30 30 32 32 33 35 36

GFSGBSN_prec_cthk_036.txt.gz
RH
47 50 53 51 44 35 29 28 26 23 20 19 19 20 21 22 20 22 24 22 20 23 23 22 16 19 25 27 26 25 23 26 27 24 24 22 21 21 22 29 35 39 35 35 50 56 51
38 43 50 53 51 43 34 29 28 25 22 20 20 21 22 22 22 24 22 21 20 24 22 19 15 21 26 28 26 26 28 29 25 22 23 21 21 29 34 34 36 35 38 39 44 48 47
36 32 38 51 53 50 43 34 31 28 25 22 20 22 23 23 24 24 20 21 22 24 21 18 19 22 29 29 28 29 31 29 28 28 30 28 33 36 38 40 36 37 34 37 42 43 39
30 31 30 34 48 47 45 37 33 30 26 24 22 24 25 25 25 23 21 21 24 24 21 18 22 26 32 28 27 31 32 32 32 34 41 39 40 39 39 37 33 28 30 33 39 33 31
16 30 27 24 39 43 42 37 32 30 26 25 23 25 26 25 25 23 22 22 24 25 22 22 23 30 34 30 30 33 34 33 38 43 42 42 42 42 41 38 36 34 31 27 24 24 26
16 20 30 25 27 39 39 37 29 28 27 26 25 27 28 26 25 24 24 23 25 25 24 25 27 35 35 33 32 33 31 35 43 44 43 44 42 37 36 34 30 30 22 22 22 21 21
15 14 25 32 25 38 39 37 29 26 26 28 29 29 27 26 24 25 24 24 28 29 24 26 28 37 39 35 33 33 30 34 47 45 42 45 38 35 33 30 28 26 33 33 29 19 18
14 14 17 35 26 31 40 38 30 24 25 27 29 30 27 26 24 26 26 29 28 32 28 28 33 41 42 36 32 32 31 36 49 44 42 42 42 32 31 29 29 24 34 39 34 29 26
12 13 14 23 32 28 40 40 34 24 25 26 29 29 27 26 25 25 22 26 32 38 39 33 38 43 41 36 31 32 32 39 43 43 43 42 38 37 35 35 35 34 35 36 34 33 33
12 12 13 17 32 27 38 40 38 26 24 28 30 30 28 26 26 23 25 35 41 46 40 32 41 44 38 33 34 29 34 40 39 43 39 40 33 34 34 34 38 39 34 33 37 39 39
16 17 15 14 31 26 39 45 41 28 25 30 31 30 29 27 24 25 36 42 50 48 40 34 41 40 36 34 34 27 32 38 40 41 42 42 39 37 37 38 39 42 34 35 35 35 32
21 20 20 19 26 29 38 48 43 30 27 32 33 31 30 27 25 38 45 54 55 52 49 38 40 37 38 33 30 32 32 34 39 42 44 44 43 43 41 41 41 41 42 37 34 37 34
24 23 22 21 23 35 42 51 47 32 29 35 35 32 30 26 36 41 51 61 52 50 36 32 34 34 32 28 28 29 30 32 39 44 45 42 38 37 38 37 37 37 38 34 33 35 30
34 32 32 31 26 36 47 56 53 33 33 38 37 35 31 28 43 48 60 57 47 29 32 33 32 31 30 27 28 27 28 31 36 39 45 39 36 34 36 37 35 35 32 30 27 32 32
44 39 38 33 28 35 50 60 59 36 37 42 41 37 32 34 50 53 61 56 35 32 35 32 32 30 30 28 25 27 29 33 34 34 36 34 37 34 35 33 31 31 29 31 35 40 39
53 44 45 44 35 38 59 67 59 39 44 46 43 38 33 42 55 58 56 45 33 37 31 29 26 27 31 29 24 25 28 31 33 33 35 35 38 33 31 32 32 31 32 31 33 37 29
62 52 53 50 42 53 66 78 57 44 52 54 49 44 38 49 61 63 51 35 31 37 35 27 26 29 32 33 29 26 29 31 32 32 32 30 29 34 34 32 32 34 32 32 31 30 24
66 58 55 54 45 69 62 82 56 54 64 61 52 48 45 58 67 63 45 35 31 36 36 29 27 27 26 26 27 25 26 27 30 29 30 28 29 36 36 35 34 31 33 31 28 27 31
64 66 60 59 58 74 98 82 61 64 62 57 55 58 61 67 65 56 40 37 36 41 35 30 27 23 23 24 28 27 25 24 27 26 27 25 30 38 37 36 40 37 32 28 27 26 27
61 66 59 54 95 85 91 88 73 72 69 62 54 65 78 79 63 46 39 37 42 45 37 29 30 33 33 34 34 38 35 32 31 30 30 30 31 31 34 38 37 37 34 29 26 29 24
54 62 59 77 90 98 85 80 80 79 70 66 55 61 70 79 54 47 38 38 50 46 37 32 32 33 34 40 41 44 43 35 34 34 34 35 34 32 33 34 36 32 29 29 28 25 27
51 58 55 89 96 97 95 95 85 76 70 65 53 67 73 74 52 48 42 48 52 45 37 35 34 33 32 36 39 47 44 43 41 44 41 39 37 34 36 36 36 34 29 26 27 24 23
57 71 83 96 98 97 95 91 82 75 64 62 58 60 62 66 54 45 43 53 53 49 42 38 36 36 36 38 40 47 47 46 44 43 43 42 40 38 33 34 34 38 27 24 23 24 23
78 90 98 97 98 95 87 85 78 71 63 62 60 58 54 59 50 41 47 55 55 50 43 39 37 34 35 36 40 44 48 47 44 41 42 42 39 39 38 37 49 21 20 20 22 21 21
95 98 96 97 96 91 85 79 75 68 65 64 61 56 49 64 45 43 50 59 57 52 49 43 37 30 30 32 36 42 47 48 46 43 40 36 35 43 49 33 25 20 22 22 25 21 23
97 95 98 97 95 87 78 75 72 64 67 67 65 54 50 52 44 40 48 59 57 54 50 45 38 33 33 35 40 47 49 46 48 48 46 42 39 40 45 54 58 26 26 27 27 27 21
95 98 98 93 82 76 75 71 66 64 71 69 64 57 53 49 43 43 42 56 59 53 49 46 38 37 35 40 50 47 43 38 40 44 53 54 55 56 51 54 37 29 26 28 30 29 25
97 90 83 78 75 74 70 66 64 63 66 65 62 59 56 54 49 43 38 46 49 49 45 42 39 40 39 47 49 43 47 37 37 36 41 43 49 54 48 55 49 25 29 33 30 29 29
81 78 75 73 71 69 65 64 65 64 66 66 61 55 52 57 55 44 39 35 37 41 39 38 38 35 38 44 44 44 49 46 40 40 37 38 36 37 35 34 29 30 31 32 33 34 36

GFSGBSN_prec_cthk_039.txt.gz
RH
39 38 42 50 52 53 50 40 32 29 28 26 24 22 20 19 20 20 20 20 22 19 18 20 20 17 16 29 28 27 22 21 23 26 28 27 27 27 27 26 26 26 35 33 38 42 48
33 40 39 42 46 52 53 50 40 33 30 28 26 24 23 21 21 21 21 22 20 17 20 20 19 15 19 30 29 27 24 24 28 27 26 28 29 29 31 33 35 38 36 38 45 55 54
17 31 38 37 39 43 53 53 48 38 34 31 29 27 24 23 23 23 22 22 19 18 21 20 19 17 25 28 30 28 27 32 31 28 28 28 28 31 37 40 36 34 38 41 48 50 48
16 18 27 35 35 35 42 52 52 43 36 33 30 28 26 24 24 23 23 23 19 19 21 20 18 22 25 30 29 27 32 33 33 33 32 31 33 37 41 41 37 37 38 43 40 42 39
15 20 18 26 30 33 34 45 48 44 35 33 31 28 26 26 25 24 24 23 20 20 21 20 20 26 30 30 28 29 31 36 34 38 41 43 45 44 42 41 38 34 33 38 41 40 31
15 16 18 14 23 29 27 31 43 44 34 30 31 29 27 28 27 26 24 23 20 21 21 21 24 33 29 34 32 32 32 35 41 45 44 45 45 44 43 43 40 36 35 30 29 27 29
9 11 14 16 11 22 28 28 41 42 35 29 28 29 28 29 29 27 25 23 24 26 26 23 31 31 36 38 33 33 31 36 46 45 50 44 49 43 41 41 39 35 28 24 26 23 22
10 9 12 14 15 18 25 26 33 43 39 28 26 28 28 29 28 27 26 29 34 41 33 22 26 29 39 37 36 36 30 37 49 50 41 46 48 45 41 36 34 30 37 37 33 23 23
9 8 10 14 15 17 24 25 27 43 40 30 25 28 29 30 29 27 25 26 31 33 37 31 27 32 38 38 36 39 31 39 47 49 45 49 47 36 34 33 36 34 39 47 39 27 23
14 9 9 14 15 15 20 25 29 42 42 32 24 28 31 31 30 29 25 23 31 41 43 33 31 35 37 39 35 39 32 41 48 45 46 56 46 38 36 37 37 46 32 35 34 30 35
17 16 13 11 13 13 14 20 30 40 46 36 25 29 32 32 36 29 34 31 40 43 54 37 32 40 39 37 39 30 31 37 47 45 45 47 37 37 35 43 29 56 36 35 34 32 42
22 16 14 13 12 12 12 20 22 39 48 38 25 30 34 33 29 32 37 41 46 49 62 35 33 35 39 35 35 39 28 35 47 48 39 55 42 38 50 34 34 37 38 42 42 37 43
25 23 17 13 15 14 15 17 22 36 47 42 28 31 34 33 34 30 41 53 52 56 45 37 38 38 36 37 35 34 31 36 40 43 49 50 47 41 39 40 39 40 45 48 52 43 41
36 30 25 18 18 19 20 17 24 39 52 44 29 35 36 34 35 39 48 69 56 42 46 36 33 34 38 39 31 31 35 34 32 43 43 44 48 35 34 37 51 42 44 48 43 37 33
43 40 33 23 19 20 20 20 23 44 60 47 32 38 38 34 34 45 58 69 49 44 40 32 31 33 36 34 32 29 33 36 36 32 48 49 51 45 34 37 37 46 32 37 40 38 33
51 51 45 34 28 30 27 23 25 50 56 48 36 44 40 37 35 53 63 58 50 45 36 30 32 30 34 34 26 27 34 34 42 34 39 47 52 44 34 34 32 31 38 33 31 38 33
61 62 57 46 38 30 33 27 30 54 56 49 44 50 42 40 40 62 59 50 50 44 36 31 34 32 32 33 27 29 35 37 33 30 30 42 39 52 37 31 35 42 31 28 32 38 38
73 72 66 58 41 40 38 30 39 62 62 52 54 54 51 39 47 58 57 53 51 44 37 30 32 29 29 35 34 33 36 38 29 32 33 38 43 43 38 37 29 30 35 35 36 34 32
80 86 76 68 51 45 45 36 47 74 74 54 59 67 68 43 46 59 57 56 50 42 38 32 27 29 31 36 35 32 32 39 32 30 34 35 29 35 41 33 25 27 29 29 33 33 31
82 89 87 76 56 56 52 45 63 75 71 63 69 77 75 54 48 59 64 53 46 47 41 33 31 32 30 29 29 34 33 29 26 26 26 26 23 33 38 42 46 42 37 36 34 34 27
86 89 91 78 67 63 55 46 67 82 68 82 79 63 58 52 51 64 70 54 44 42 43 37 39 31 28 33 32 37 38 32 28 27 28 30 32 31 30 36 36 38 36 35 35 30 31
81 80 74 69 64 64 58 65 89 83 83 88 81 63 58 52 57 81 74 56 43 43 43 38 33 33 35 39 38 41 41 39 34 33 34 34 38 35 36 33 30 31 30 30 28 26 25
75 77 68 64 57 59 60 94 98 94 96 85 77 68 63 66 58 72 69 53 48 58 50 41 34 36 41 47 43 43 52 50 48 45 45 46 43 41 38 33 31 36 28 27 26 26 26
62 57 57 59 56 52 86 95 94 87 87 85 87 83 67 72 60 57 63 56 54 63 50 43 47 45 40 38 37 38 44 49 48 48 47 44 45 47 44 42 53 24 23 22 23 23 24
52 54 57 61 60 72 94 98 98 99 90 91 92 73 72 70 68 63 59 58 64 66 55 49 43 41 40 38 37 42 47 51 48 46 40 40 44 49 56 37 30 25 22 24 25 24 26
52 57 60 61 71 86 91 92 91 93 89 98 87 79 72 67 72 57 58 60 69 63 57 51 45 41 37 35 39 40 45 40 49 46 41 39 41 41 41 55 61 33 27 25 26 30 28
73 91 96 96 98 97 97 99 98 91 89 96 90 69 64 60 61 61 52 55 63 62 59 56 51 44 37 38 47 44 45 39 46 50 59 54 54 54 51 58 43 33 30 27 31 36 30
93 98 98 97 94 97 98 94 90 82 88 95 86 71 66 64 61 52 52 56 67 64 59 53 53 48 41 43 49 45 48 39 38 35 41 46 51 56 54 61 53 28 27 30 36 29 31
94 97 97 97 98 95 90 87 81 82 92 95 83 67 56 54 58 52 46 50 60 65 64 55 54 48 40 41 45 50 50 45 42 42 35 42 38 43 37 42 36 30 31 32 32 32 35

GFSGBSN_prec_cthk_042.txt.gz
RH
29 32 38 38 44 43 51 55 53 44 35 30 29 27 26 24 23 21 21 20 19 19 20 16 15 17 16 22 26 30 27 20 18 19 25 32 31 30 30 32 32 32 35 35 34 37 48
18 21 29 35 40 37 44 51 56 53 42 35 32 30 28 27 26 23 22 20 20 20 20 16 16 17 17 22 29 32 25 22 21 23 30 33 30 31 33 37 33 35 36 38 33 35 45
16 16 16 23 34 39 36 42 51 55 52 41 34 32 31 29 28 25 23 21 20 22 19 16 17 17 21 20 30 35 25 29 30 29 29 29 33 34 38 42 42 43 37 36 37 45 55
16 15 14 14 19 30 33 36 37 52 54 48 38 34 32 30 29 26 24 22 21 23 19 17 17 18 21 23 27 26 31 33 37 35 29 33 31 33 38 46 40 36 36 43 46 44 43
13 13 13 14 14 18 30 31 32 40 52 52 42 35 32 30 29 26 25 23 22 21 18 17 17 23 26 28 26 25 30 36 39 35 33 32 31 35 43 45 40 39 41 45 41 43 46
13 13 12 12 12 14 21 29 27 32 44 46 39 32 31 29 29 27 26 23 22 20 19 17 18 27 21 28 28 32 37 36 38 36 39 40 41 45 44 48 45 47 36 39 43 34 38
14 13 13 12 11 11 12 21 25 28 34 42 39 29 28 29 29 28 27 25 30 37 28 19 29 27 31 35 34 31 37 34 40 39 48 46 47 46 48 46 49 44 41 39 32 28 24
14 14 16 13 11 10 7 12 20 24 27 40 39 29 24 27 29 28 27 28 35 39 36 30 21 27 30 33 35 31 38 32 43 48 55 54 43 48 51 47 43 36 39 35 30 24 16
17 18 15 17 14 12 10 8 17 24 28 40 40 31 23 26 30 29 26 23 30 36 32 28 24 20 25 31 34 35 38 31 49 44 53 62 45 49 46 38 37 37 48 44 44 29 16
18 18 19 19 16 12 11 9 15 19 27 34 40 34 22 27 31 31 27 22 26 34 39 32 29 23 25 32 34 37 42 31 47 45 55 58 50 47 41 40 39 46 51 40 46 38 26
17 18 17 17 17 15 11 13 10 18 25 32 41 38 22 27 36 35 41 27 31 41 56 31 32 28 27 31 35 34 40 35 44 43 45 53 53 47 45 44 43 39 45 45 39 37 42
18 16 18 17 17 17 13 12 11 15 24 33 45 40 24 27 32 34 38 37 43 51 47 32 30 31 34 35 36 42 36 31 39 43 49 53 53 53 44 40 34 37 32 34 33 35 50
29 21 22 20 19 18 16 13 10 12 21 35 48 45 24 31 35 34 37 43 52 51 31 37 32 33 35 39 38 37 41 31 33 42 48 45 43 46 36 33 30 31 39 51 82 77 45
28 28 26 27 26 19 17 13 10 12 17 30 50 47 29 29 42 43 41 59 54 35 42 36 34 39 44 41 38 35 38 34 34 36 42 46 54 43 32 36 51 41 41 59 67 77 51
36 34 26 26 26 26 22 16 13 11 16 28 50 50 34 29 38 42 57 62 45 42 38 47 38 44 44 43 41 36 32 36 35 33 44 53 57 58 45 37 31 53 47 42 46 48 45
38 36 36 34 33 28 25 17 17 14 16 33 51 52 40 34 42 45 58 50 42 44 44 48 39 39 46 40 35 37 35 33 34 35 42 54 65 63 49 36 24 26 33 41 38 37 35
48 48 47 37 38 37 34 21 19 17 19 39 53 56 42 36 47 49 46 45 43 48 47 49 37 42 44 42 37 31 31 32 32 44 43 42 58 69 57 37 25 41 43 31 28 42 51
57 55 50 49 47 43 37 33 23 22 25 50 54 56 45 39 53 40 42 40 41 54 53 46 38 44 42 43 41 29 33 39 33 37 39 28 48 55 51 42 32 33 42 44 52 36 40
62 61 59 53 53 51 48 40 30 25 30 53 57 62 64 46 47 37 41 41 44 55 59 47 37 39 41 39 43 34 42 47 42 31 32 38 37 43 40 42 36 29 22 26 32 45 39
61 61 58 63 62 59 52 45 36 28 39 61 62 70 77 65 40 36 41 42 45 52 52 51 38 35 40 39 44 41 45 44 41 36 29 34 38 33 37 30 50 52 47 35 39 50 38
65 58 56 72 74 66 61 49 42 32 47 68 71 55 59 62 49 37 47 46 51 49 48 52 39 34 38 40 43 38 39 41 34 29 26 28 27 25 26 34 44 38 46 46 41 41 43
60 59 70 82 83 76 68 59 51 40 54 72 65 55 54 56 56 44 49 45 50 50 48 50 47 36 37 39 33 37 36 40 32 27 25 26 30 36 39 36 35 33 29 29 30 32 31
62 78 88 89 86 86 77 64 50 50 79 82 67 53 66 57 55 49 45 51 56 56 48 48 44 42 39 48 50 50 47 51 43 42 36 37 37 44 44 37 33 36 25 24 24 27 31
65 82 97 98 97 84 77 65 50 62 88 69 58 66 75 61 52 37 52 60 64 50 57 54 51 42 56 54 52 49 45 56 52 53 51 51 52 57 54 47 52 26 25 24 24 24 25
71 84 92 89 83 67 62 63 50 80 91 70 76 86 76 76 45 57 62 68 66 51 54 69 47 53 54 46 51 49 45 45 46 49 51 52 52 56 64 48 36 32 29 25 27 29 28
70 81 82 80 71 63 61 54 47 77 77 79 84 82 81 79 57 44 55 64 57 52 75 77 55 53 56 51 47 45 47 39 47 45 45 45 46 52 51 59 61 39 32 29 27 35 31
65 68 74 69 63 56 58 42 72 85 91 84 83 89 76 96 68 55 56 50 57 55 87 75 48 52 45 51 53 46 40 39 54 57 59 53 54 58 55 60 49 40 35 34 39 43 37
55 62 59 55 57 52 48 57 72 81 72 81 80 88 93 87 67 60 56 56 63 57 95 68 49 46 46 48 48 44 49 46 45 42 48 53 60 65 61 71 63 35 32 34 40 36 31
56 56 54 56 55 50 44 71 86 91 95 97 94 84 96 93 74 59 60 62 65 60 83 62 47 42 41 43 42 49 54 52 45 45 37 44 39 47 43 48 36 33 32 33 33 33 36

GFSGBSN_prec_cthk_045.txt.gz
RH
26 26 31 34 38 39 37 46 45 53 53 47 38 31 28 26 26 26 24 23 22 20 18 18 17 14 13 15 18 24 28 24 19 19 19 27 33 31 31 33 35 30 34 36 45 41 49
24 24 24 26 32 34 35 38 39 48 54 52 44 35 30 29 28 27 26 25 23 20 18 19 17 14 14 19 21 25 27 23 20 20 25 31 32 32 33 33 40 37 37 37 42 45 56
22 21 21 20 20 25 31 35 34 35 47 54 51 42 34 32 30 29 28 26 23 20 19 18 17 14 14 12 23 28 28 24 26 28 27 28 35 35 33 38 44 39 38 37 40 41 49
22 21 20 23 24 18 21 27 35 37 35 46 51 47 38 35 32 31 28 27 23 20 19 18 16 15 13 14 20 27 26 27 32 33 30 31 34 31 33 37 38 41 37 38 39 42 51
20 19 19 18 18 22 18 18 28 32 34 36 47 48 41 36 34 31 29 26 22 19 19 19 17 22 16 21 20 23 24 28 34 37 38 34 31 30 33 44 42 38 39 40 46 45 52
18 17 16 15 14 15 15 16 20 28 31 31 39 44 41 34 30 29 29 26 22 20 20 18 17 19 17 22 23 24 28 31 35 40 44 45 41 42 43 45 47 38 41 42 44 43 42
25 19 16 14 14 13 12 12 13 22 28 30 37 44 39 27 25 28 29 27 32 37 34 27 18 17 24 29 27 26 32 33 36 47 48 59 51 50 48 49 46 48 48 45 39 43 36
27 29 21 17 15 14 12 11 11 13 22 27 35 42 39 27 23 26 27 27 35 35 30 25 22 23 27 28 27 28 32 34 37 50 58 55 57 59 49 47 46 46 49 50 41 39 30
27 28 27 23 18 16 14 12 10 9 16 22 31 33 39 30 22 24 25 25 28 33 30 19 17 19 25 26 25 27 33 32 38 53 55 57 56 50 53 48 47 48 47 48 44 37 24
21 21 23 24 22 18 15 15 15 13 15 19 27 29 38 33 24 30 32 28 23 30 40 22 21 25 18 23 24 27 33 32 37 51 52 51 51 51 54 50 52 51 48 45 42 37 32
24 20 19 20 20 22 17 14 12 13 17 21 27 29 37 35 25 33 38 31 30 36 54 28 28 23 16 23 27 26 33 36 39 44 50 49 48 49 48 47 54 47 37 43 48 52 48
29 25 20 18 19 19 18 18 13 11 14 24 26 30 38 34 22 36 43 37 38 52 54 31 28 26 24 24 29 33 36 36 36 44 44 42 46 46 48 50 41 38 31 41 52 54 56
29 30 30 21 18 19 19 18 17 11 10 20 32 31 36 38 23 37 42 43 52 62 24 29 29 27 27 28 32 37 40 37 33 41 49 46 43 55 54 49 48 36 36 53 58 65 56
36 29 28 27 23 17 19 19 18 15 11 13 25 44 42 37 27 38 40 50 56 34 29 30 30 30 30 31 34 37 40 40 33 32 44 53 55 52 53 49 46 49 41 57 68 74 66
49 36 33 27 29 28 19 23 19 17 13 14 26 39 50 52 44 43 48 57 43 31 27 34 35 34 32 32 38 39 37 42 33 25 36 55 57 56 56 47 48 43 53 50 58 58 63
52 49 36 33 35 29 26 27 28 23 16 16 27 38 40 49 41 48 50 44 42 29 41 44 44 35 35 33 41 47 39 33 34 30 37 46 60 61 60 52 41 36 39 50 48 40 37
62 54 44 33 37 37 28 26 27 26 17 17 30 40 43 50 41 50 50 49 42 32 46 46 46 39 35 38 43 45 41 36 34 37 38 42 48 55 56 58 37 42 40 38 38 42 54
65 62 47 36 36 38 36 31 37 31 22 21 37 45 50 54 53 47 49 41 41 36 48 50 46 42 37 38 44 41 37 34 36 42 50 45 46 60 60 55 45 39 39 45 55 41 48
64 62 54 40 48 48 45 36 36 35 26 23 40 46 61 50 50 42 45 44 37 34 48 49 47 40 36 44 50 47 38 39 41 44 51 45 42 57 51 56 50 43 41 33 41 48 44
63 58 51 45 55 53 50 48 46 42 31 30 49 58 63 52 38 35 42 39 34 33 50 49 50 44 40 43 46 51 44 40 39 44 46 33 36 37 40 38 31 44 45 42 40 51 40
65 57 47 47 62 61 60 49 51 48 39 42 50 53 45 56 47 41 40 40 35 35 47 56 52 45 41 46 42 49 55 46 44 41 39 38 34 36 33 28 29 40 42 44 52 49 53
55 48 48 54 65 61 61 62 58 55 46 51 62 48 49 52 52 49 40 38 33 30 45 56 57 45 41 44 39 46 47 41 40 38 34 32 34 27 30 29 31 34 35 33 41 38 35
50 50 60 73 70 63 63 66 62 61 58 60 59 48 54 55 57 61 36 35 30 34 45 52 52 51 37 37 35 44 43 37 36 36 30 27 28 35 37 32 35 40 27 25 24 25 29
63 65 65 70 68 61 64 74 66 72 59 52 54 62 59 54 60 44 42 38 33 32 44 50 50 53 42 41 40 44 43 43 43 45 42 38 39 48 52 49 48 32 27 26 29 30 31
72 68 62 58 67 74 81 77 72 75 58 53 58 74 73 62 50 48 42 35 36 41 54 58 56 58 56 48 60 64 69 57 52 63 57 48 56 65 62 59 43 35 32 30 31 33 30
78 68 64 71 87 91 93 89 77 66 51 57 70 69 77 72 48 39 41 40 43 52 62 65 64 59 63 63 67 69 73 55 52 44 43 49 54 61 65 59 54 42 35 32 31 43 34
71 70 86 94 98 91 92 92 79 64 49 62 73 67 76 64 62 52 37 36 45 58 66 68 69 68 71 65 86 72 62 44 49 47 48 55 59 60 65 61 51 39 37 35 41 45 39
68 81 91 98 98 97 92 74 62 54 46 59 66 78 71 81 78 64 56 47 48 64 65 66 70 89 87 68 67 62 54 43 48 48 55 54 60 61 66 66 58 38 37 40 42 36 34
68 83 87 90 81 77 73 66 53 45 47 64 69 58 81 81 77 81 66 47 49 56 64 69 63 68 82 74 69 54 51 48 45 54 44 49 46 52 52 53 39 33 36 35 34 36 38

GFSGBSN_prec_cthk_048.txt.gz
RH
32 32 29 29 32 35 37 40 37 41 44 48 49 46 38 32 30 28 26 26 25 24 22 19 16 16 14 12 11 18 23 23 20 18 19 21 30 34 35 37 37 31 38 39 41 45 48
30 30 34 34 28 31 34 34 37 37 41 42 49 49 45 36 32 29 28 27 27 25 23 19 16 16 15 16 13 20 25 25 22 20 20 27 32 36 36 38 37 40 40 40 46 46 47
25 28 30 25 27 32 28 32 31 35 40 38 44 49 50 43 35 32 30 29 28 27 24 20 16 16 15 9 15 20 25 25 27 30 28 30 34 38 36 35 41 39 39 43 44 47 51
23 23 25 26 24 22 23 23 30 28 35 38 36 44 47 45 38 34 32 30 30 27 23 20 16 16 13 9 14 19 25 27 30 32 32 30 30 33 36 36 44 41 41 42 46 48 48
22 22 23 23 25 25 22 22 22 30 29 34 34 38 46 44 38 34 33 31 30 26 23 19 16 19 14 12 13 20 25 31 30 33 35 35 33 32 30 41 44 44 39 39 41 44 48
28 22 22 21 21 21 23 24 21 23 36 42 31 33 39 42 38 33 32 31 28 26 27 21 18 19 14 16 20 19 26 31 32 35 37 38 36 37 42 47 50 40 40 45 47 45 44
30 29 22 21 20 19 18 17 17 16 18 26 37 34 37 42 39 28 28 27 27 34 33 26 19 15 15 22 22 22 27 32 34 37 42 49 44 49 58 56 52 45 46 45 46 49 44
31 30 30 27 20 18 18 17 15 14 14 20 27 29 34 40 39 28 26 25 31 32 29 21 20 22 21 26 26 23 27 32 34 39 47 50 49 49 52 52 53 50 50 51 44 44 41
30 29 29 29 30 25 19 18 16 14 13 15 23 25 30 36 42 29 25 28 31 27 30 20 17 15 20 23 24 23 26 30 35 39 49 54 50 51 53 52 54 51 50 49 45 42 40
29 30 26 29 29 28 28 23 21 18 17 15 23 26 26 31 38 29 35 32 25 25 36 24 22 15 20 23 20 23 26 29 33 38 41 45 48 49 56 53 50 51 43 46 45 41 40
35 29 30 27 25 28 27 26 26 19 16 18 23 25 27 28 29 32 43 36 32 31 37 26 23 22 16 20 23 21 29 29 32 40 44 46 46 52 52 50 51 48 42 45 43 44 41
39 39 31 30 29 22 23 24 24 21 17 18 28 32 32 27 32 40 45 37 35 44 43 29 27 23 18 17 26 26 30 31 31 35 42 44 45 50 49 50 52 49 44 48 50 49 53
42 43 39 30 30 29 23 19 21 22 17 19 24 31 38 26 35 36 44 43 48 54 23 29 27 24 22 20 26 29 33 33 33 38 42 53 50 49 50 53 47 46 44 54 61 67 59
47 49 44 38 30 30 29 22 21 19 18 17 23 33 37 30 41 33 42 49 53 35 26 31 27 27 28 24 28 32 34 37 36 37 45 57 48 48 51 54 56 59 53 53 54 67 56
32 50 51 44 37 39 30 27 28 26 19 15 20 29 40 31 49 38 45 54 43 31 23 28 30 31 32 28 29 34 34 33 34 36 37 53 52 51 50 56 54 55 54 50 59 58 65
32 45 59 52 46 36 33 30 30 30 27 18 20 28 29 27 59 42 47 48 38 22 36 35 33 31 35 30 31 36 34 28 31 35 34 41 53 53 51 51 52 50 48 53 59 53 48
47 42 63 62 53 43 35 32 34 30 30 22 25 35 28 36 52 66 54 45 41 20 40 43 40 38 34 32 30 35 37 33 33 31 39 40 47 51 52 49 46 40 39 43 41 48 52
61 46 62 70 59 50 39 40 40 38 39 27 29 40 30 40 58 50 58 50 47 24 37 49 50 48 38 34 33 35 36 32 35 36 41 44 52 60 48 46 54 50 43 47 59 53 53
66 48 61 73 70 55 45 42 41 41 39 30 32 40 39 39 52 48 49 56 46 30 41 47 50 49 40 36 35 34 34 37 35 39 41 51 58 64 57 49 48 49 44 46 49 51 50
69 57 59 73 73 61 52 43 49 47 47 36 39 49 52 41 40 41 43 48 49 25 43 46 50 51 45 39 36 37 39 41 41 41 43 44 56 54 53 44 53 48 43 48 48 54 48
67 65 70 70 74 68 56 43 50 50 52 45 47 40 44 45 43 43 42 46 54 32 34 43 50 51 50 43 40 41 45 52 43 42 50 50 51 44 39 36 35 38 36 37 42 49 55
66 73 72 75 76 72 57 47 60 55 62 56 45 43 38 39 38 43 42 41 46 29 31 37 47 52 49 45 42 44 46 48 44 43 48 45 46 40 42 40 40 35 30 32 32 39 43
77 83 74 74 73 67 56 48 62 63 68 56 49 44 40 36 44 45 35 37 39 30 27 29 48 58 49 44 44 41 45 47 46 49 47 47 48 46 42 35 31 37 25 25 28 31 33
79 79 74 71 66 59 46 56 71 69 68 54 45 50 49 44 46 38 37 39 40 29 29 26 50 53 49 50 50 45 47 49 48 51 46 44 43 39 43 34 42 27 24 24 26 27 28
78 74 70 66 58 44 48 70 74 74 69 62 53 53 57 50 43 45 45 44 45 30 33 30 52 56 59 55 59 59 57 52 58 55 48 42 51 49 47 48 40 34 31 30 31 37 34
75 64 56 47 54 63 77 74 69 75 73 62 61 63 57 50 46 53 44 45 50 41 38 37 49 61 66 65 63 61 60 57 58 56 57 58 62 61 66 62 61 42 35 35 36 47 38
66 62 57 58 66 70 73 67 66 70 71 63 69 64 64 66 63 50 46 52 47 50 40 42 54 67 66 66 73 70 62 53 71 70 62 59 64 60 65 63 51 40 36 38 41 39 40
77 68 67 64 64 69 66 63 56 63 74 70 66 62 60 57 56 61 63 49 43 44 43 44 62 62 66 78 72 77 64 60 67 62 59 51 55 60 63 64 52 39 37 39 40 43 44
78 68 67 66 66 68 82 91 89 79 73 64 67 72 70 73 67 64 70 57 46 42 42 53 56 59 62 74 77 81 77 67 61 72 53 44 41 50 53 52 43 40 39 42 39 37 35

GFSGBSN_prec_cthk_051.txt.gz
RH
28 28 30 30 29 35 39 39 39 39 36 41 45 46 46 44 37 32 30 28 27 26 25 25 23 20 16 14 12 15 17 21 21 18 18 22 28 35 33 38 36 30 39 41 38 42 46
27 27 27 28 29 30 34 39 43 40 39 37 39 42 46 47 43 36 33 31 29 27 27 26 24 21 16 17 11 14 19 23 22 21 20 27 33 37 39 38 39 39 40 46 44 47 46
27 26 26 26 26 27 35 42 38 40 35 39 39 40 40 47 48 44 37 33 31 29 28 27 25 20 15 13 13 15 20 24 26 24 25 31 34 36 38 39 38 41 40 45 48 44 43
32 27 25 24 25 25 28 32 31 37 47 38 37 40 40 42 46 45 38 35 32 30 30 28 25 19 14 12 10 14 21 27 30 29 27 29 32 32 35 36 38 42 43 47 42 44 46
34 32 30 26 23 23 23 23 24 24 25 32 36 39 41 37 44 44 39 34 32 31 30 28 25 19 14 13 11 15 21 29 30 31 32 34 32 32 30 37 44 45 43 40 43 46 48
35 34 32 31 28 22 22 22 23 26 25 27 30 36 41 42 39 41 39 35 32 31 31 29 27 23 13 15 17 17 22 27 30 31 35 40 37 37 35 41 50 52 49 47 48 54 57
22 30 33 32 30 30 21 21 21 22 24 25 27 35 47 60 42 39 39 32 32 36 36 27 24 17 16 17 17 19 23 26 29 32 37 47 44 43 41 43 44 52 49 46 45 42 45
29 23 24 31 31 31 30 22 18 18 19 20 24 35 42 44 49 51 44 33 34 37 31 23 22 22 19 22 23 22 23 25 27 33 40 47 49 46 49 45 45 45 46 49 51 49 45
28 29 25 24 28 30 29 29 22 17 17 17 17 26 30 37 41 48 49 36 37 35 30 19 20 19 16 20 23 22 24 26 28 36 40 48 48 48 47 49 49 50 51 53 52 47 43
25 28 28 28 27 25 28 28 27 24 15 17 16 24 27 35 35 39 48 53 40 32 32 20 22 18 16 20 22 22 26 26 29 33 39 44 45 47 50 48 52 52 50 49 49 47 40
25 25 34 31 28 29 27 27 28 27 24 17 16 22 26 33 31 35 46 40 40 36 31 19 23 23 17 19 20 20 25 28 28 33 39 42 46 48 50 49 52 52 48 49 45 45 51
33 27 37 39 34 28 29 29 29 28 27 26 19 24 28 31 33 39 51 45 46 47 39 27 25 25 20 19 21 21 25 29 32 34 38 42 45 46 48 48 48 46 45 49 52 53 54
47 36 30 37 39 38 29 29 32 33 28 26 21 28 30 37 33 47 52 48 57 61 26 29 28 25 20 18 23 23 27 29 33 38 38 37 47 46 50 48 47 45 48 53 56 63 57
56 50 40 35 41 40 37 31 30 32 34 27 22 27 30 29 36 50 52 58 62 41 32 30 27 27 23 18 24 26 29 31 32 35 40 45 51 47 48 50 48 47 47 55 47 57 53
63 58 51 39 46 47 40 37 33 30 31 32 25 30 30 27 40 61 59 67 50 35 30 25 29 31 28 23 22 25 30 32 32 35 36 46 50 50 50 53 49 49 53 52 60 61 65
79 64 64 50 39 51 49 40 40 32 32 30 31 30 24 18 36 62 65 52 45 29 36 30 30 28 31 28 27 29 33 31 33 34 34 38 47 52 55 53 49 46 48 52 56 54 55
90 76 68 63 44 52 52 50 40 40 41 39 31 33 21 26 42 60 60 53 46 23 29 38 40 34 32 33 29 31 33 31 33 33 34 38 37 48 53 51 48 52 52 49 46 54 54
98 90 74 71 58 51 57 48 49 45 43 43 34 35 20 27 51 60 54 57 41 24 29 41 44 43 37 34 33 30 33 32 33 34 35 34 39 52 46 47 50 51 50 49 54 50 52
98 98 84 77 68 55 58 63 54 52 48 47 40 39 29 24 45 53 50 51 50 29 31 34 43 49 47 39 36 33 32 34 35 37 38 37 44 51 49 49 52 52 55 50 47 50 51
98 98 95 83 71 55 65 72 57 50 53 53 47 49 50 40 32 37 45 49 53 31 36 39 42 51 54 45 39 36 36 38 36 37 38 40 46 42 51 47 50 51 51 49 50 60 49
98 98 98 88 72 62 74 73 63 46 58 61 51 44 42 48 41 42 43 43 52 48 41 38 41 49 57 55 44 39 39 40 40 39 39 41 44 42 47 47 42 41 55 55 50 46 47
99 99 98 92 72 69 78 76 64 54 59 67 50 45 46 40 35 41 47 46 45 43 40 38 35 46 52 58 50 45 47 46 43 44 44 42 49 45 53 49 45 37 40 42 43 41 36
98 99 98 94 75 72 77 76 65 66 67 72 55 48 45 37 42 42 36 38 38 44 42 35 30 45 51 58 61 53 50 50 44 46 50 50 55 56 64 58 50 54 38 37 36 31 27
98 99 98 89 77 76 80 79 69 63 65 67 54 47 51 44 42 33 32 38 38 35 33 26 28 45 46 59 60 56 55 57 53 51 47 52 59 61 65 60 59 32 31 27 26 23 21
98 98 95 83 76 75 80 75 69 58 73 72 63 52 62 52 46 41 37 36 41 34 30 25 28 38 56 64 68 69 71 63 60 57 53 47 52 62 61 59 40 30 26 25 26 30 30
98 96 88 87 78 75 76 74 69 61 64 75 71 59 64 64 50 41 39 38 40 37 30 22 26 40 56 72 79 72 73 65 64 57 55 50 53 59 57 55 55 38 34 37 39 44 35
95 92 89 81 73 69 63 59 60 61 68 77 76 63 65 64 61 52 46 44 42 38 28 27 29 45 56 70 81 77 72 63 65 62 59 60 64 64 65 69 61 50 37 44 43 34 37
95 89 86 82 75 72 65 60 53 57 74 79 73 64 61 64 61 62 55 48 39 32 35 40 40 45 59 78 85 83 74 66 59 55 53 52 68 73 73 64 55 35 35 38 38 39 40
90 84 77 71 65 58 59 60 65 74 86 79 75 63 58 71 72 56 58 56 55 47 34 48 40 42 48 70 80 83 78 72 59 65 54 50 59 67 66 56 41 37 37 38 39 41 47